This demonstration page uses our WeatherBlox Daily Observations layout. Learn more.

Left ArrowRight Arrow

41.55636, -103.73856

Hourly Observations for March 27, 2021

Temp ( °F °C ) Dew Point ( °F °C ) Humidity (%) Winds ( mph kmh ) Pressure ( in mb ) Visibility ( mi km ) Precip ( " mm )
12:58 am 00:58 Partly Cloudy 30 -0.9 26 -3.3 84 84 W 6 9 30.03 1017 10 16 0.00 0.00
1:58 am 01:58 Partly Cloudy 28 -2.1 24 -4.2 86 86 W 15 24 30.06 1018 10 16 0.00 0.00
2:58 am 02:58 Mostly Cloudy with Light Snow Showers 29 -1.5 26 -3.6 86 86 WNW 16 26 30.06 1018 10 16 0.00 0.00
3:58 am 03:58 Windy with Snow Showers Likely 32 -0.2 30 -1.3 92 92 NNW 21 33 30.06 1018 5 8 0.00 0.00
4:58 am 04:58 Mostly Cloudy 31 -0.3 29 -1.4 92 92 NW 17 28 30.09 1019 10 16 0.00 0.00
5:58 am 05:58 Mostly Cloudy 31 -0.4 29 -1.7 91 91 NW 16 26 30.12 1020 10 16 0.00 0.00
6:58 am 06:58 Windy with Snow Showers Likely 31 -0.3 29 -1.7 90 90 NW 20 31 30.14 1021 10 16 0.00 0.00
7:58 am 07:58 Mostly Cloudy with Light Rain/Snow 31 -0.3 28 -2.3 87 87 NNW 23 37 30.18 1022 10 16 0.00 0.00
8:58 am 08:58 Windy with Rain Showers Likely 32 0 28 -2.3 85 85 NNW 20 31 30.22 1024 10 16 0.00 0.00
9:58 am 09:58 Mostly Cloudy with Light Rain/Snow 33 0.5 27 -2.6 80 80 NNW 20 31 30.25 1025 10 16 0.00 0.00
10:58 am 10:58 Mostly Cloudy with Light Showers 35 1.5 27 -2.7 74 74 NNW 18 30 30.26 1025 10 16 0.00 0.00
11:58 am 11:58 Mostly Cloudy 36 2.4 27 -3 68 68 NNW 20 31 30.27 1025 10 16 0.00 0.00
12:58 pm 12:58 Mostly Cloudy 37 2.6 25 -3.7 64 64 WNW 20 31 30.24 1024 10 16 0.00 0.00
1:58 pm 13:58 Sunny 37 3 24 -4.7 57 57 NW 22 35 30.25 1025 10 16 0.00 0.00
2:58 pm 14:58 Mostly Cloudy 38 3.6 24 -4.6 55 55 NW 21 33 30.23 1024 10 16 0.00 0.00
3:58 pm 15:58 Mostly Sunny 39 4 25 -3.9 57 57 NW 22 35 30.21 1023 10 16 0.00 0.00
4:58 pm 16:58 Mostly Cloudy 41 4.8 23 -4.8 50 50 NNW 21 33 30.23 1024 10 16 0.00 0.00
5:58 pm 17:58 Mostly Sunny 41 4.9 22 -5.5 47 47 NNW 23 37 30.24 1024 10 16 0.00 0.00
6:58 pm 18:58 Mostly Sunny 39 3.8 25 -3.8 58 58 NNW 17 28 30.26 1025 10 16 0.00 0.00
7:58 pm 19:58 Clear 37 2.7 25 -3.8 63 63 NNW 14 22 30.29 1026 10 16 0.00 0.00
8:58 pm 20:58 Clear 33 0.5 25 -3.7 74 74 NNW 10 17 30.30 1026 10 16 0.00 0.00
9:58 pm 21:58 Clear 28 -2.1 24 -4.5 84 84 NW 8 13 30.34 1028 10 16 0.00 0.00
10:58 pm 22:58 Clear 28 -2.1 23 -5 81 81 W 9 15 30.35 1028 10 16 0.00 0.00
11:58 pm 23:58 Clear 30 -1.2 23 -4.9 76 76 WSW 9 15 30.32 1027 10 16 0.00 0.00

Powered by AerisWeather